Location: Newark
(31.5350°N, 35.0986°E)
Time: 00:45:17
(UTC+00:00)

SR - Pass Details

Date: 26 October 2019
Orbit: 574 x 882 km, 66.7° (Epoch: 17 November)

Event Time Altitude Azimuth Distance (km) Brightness Sun altitude
Rises 02:13:19 0° 352° (N) 3,472 ? -21.3°
Reaches altitude 10° 02:16:49 10° 13° (NNE) 2,542 ? -20.5°
Maximum altitude 02:20:30 17° 51° (NE) 2,098 ? -19.8°
Drops below altitude 10° 02:24:08 10° 90° (E) 2,514 ? -19.0°
Sets 02:27:32 0° 110° (ESE) 3,416 ? -18.3°
